Find Starlink 35335

NORAD ID: 66180 Int'l Des: 2025-243 Owner: SPXS Country: US Constellation: starlink operational
LEOCIRCULAR

实时位置

正在加载3D地球...

关于 Starlink 35335

正在加载描述...

即将过境

Passes for default location (London). Set your location on the main map for personalized predictions.

高度历史

Loading altitude history...

两行轨道根数

1 66180U 25243D 26105.21594566 .00009181 00000-0 32170-3 0 9994
2 66180 53.1589 75.7627 0001184 82.3599 277.7536 15.30202796 26244
Epoch: Apr 15, 2026 • Age: 5 hours

当前状态

高度 479.7 km
速度 7.63 km/s
星下点 47.45°N, 158.78°W
发射日期 Oct 26, 2025
运行时间 0.4 years
类型 internet

技术详情

分类 Payload
质量 575.00 kg
干质量 530.00 kg
总质量 575.00 kg
长度 0.30 m
直径 4.10 m
跨度 29.00 m
形状 Box + pan
制造商 SPXS
平台类型 Starlink V2MO
阶段状态 In Orbit
所有者/国家 SPXS/US

Most Searched